Year,Month,Day,Hour,Minute,Value (Times are PST for temperature in C)
2020,11,04,00,00,12.60
2020,11,04,00,01,12.60
2020,11,04,00,02,12.60
2020,11,04,00,03,12.60
2020,11,04,00,04,12.60
2020,11,04,00,05,12.60
2020,11,04,00,06,12.60
2020,11,04,00,07,12.60
2020,11,04,00,08,12.60
2020,11,04,00,09,12.70
2020,11,04,00,10,12.70
2020,11,04,00,11,12.70
2020,11,04,00,12,12.70
2020,11,04,00,13,12.70
2020,11,04,00,14,12.70
2020,11,04,00,15,12.70
2020,11,04,00,16,12.70
2020,11,04,00,17,12.70
2020,11,04,00,18,12.70
2020,11,04,00,19,12.70
2020,11,04,00,20,12.70
2020,11,04,00,21,12.70
2020,11,04,00,22,12.80
2020,11,04,00,23,12.80
2020,11,04,00,24,12.80
2020,11,04,00,25,12.80
2020,11,04,00,26,12.80
2020,11,04,00,27,12.80
2020,11,04,00,28,12.80
2020,11,04,00,29,12.80
2020,11,04,00,30,12.80
2020,11,04,00,31,12.80
2020,11,04,00,32,12.80
2020,11,04,00,33,12.80
2020,11,04,00,34,12.80
2020,11,04,00,35,12.80
2020,11,04,00,36,12.80
2020,11,04,00,37,12.70
2020,11,04,00,38,12.70
2020,11,04,00,39,12.60
2020,11,04,00,40,12.60
2020,11,04,00,41,12.60
2020,11,04,00,42,12.60
2020,11,04,00,43,12.60
2020,11,04,00,44,12.60
2020,11,04,00,45,12.50
2020,11,04,00,46,12.60
2020,11,04,00,47,12.60
2020,11,04,00,48,12.60
2020,11,04,00,49,12.60
2020,11,04,00,50,12.60
2020,11,04,00,51,12.60
2020,11,04,00,52,12.60
2020,11,04,00,53,12.60
2020,11,04,00,54,12.60
2020,11,04,00,55,12.70
2020,11,04,00,56,12.70
2020,11,04,00,57,12.70
2020,11,04,00,58,12.70
2020,11,04,00,59,12.80
2020,11,04,01,00,12.80
2020,11,04,01,01,12.80
2020,11,04,01,02,12.80
2020,11,04,01,03,12.80
2020,11,04,01,04,12.80
2020,11,04,01,05,12.80
2020,11,04,01,06,12.80
2020,11,04,01,07,12.80
2020,11,04,01,08,12.80
2020,11,04,01,09,12.80
2020,11,04,01,10,12.80
2020,11,04,01,11,12.80
2020,11,04,01,12,12.90
2020,11,04,01,13,12.90
2020,11,04,01,14,12.90
2020,11,04,01,15,12.90
2020,11,04,01,16,12.90
2020,11,04,01,17,12.90
2020,11,04,01,18,12.90
2020,11,04,01,19,12.90
2020,11,04,01,20,12.90
2020,11,04,01,21,12.90
2020,11,04,01,22,12.90
2020,11,04,01,23,12.90
2020,11,04,01,24,12.90
2020,11,04,01,25,12.90
2020,11,04,01,26,12.90
2020,11,04,01,27,12.90
2020,11,04,01,28,12.90
2020,11,04,01,29,12.90
2020,11,04,01,30,12.90
2020,11,04,01,31,12.90
2020,11,04,01,32,12.90
2020,11,04,01,33,12.90
2020,11,04,01,34,12.90
2020,11,04,01,35,12.90
2020,11,04,01,36,12.90
2020,11,04,01,37,12.90
2020,11,04,01,38,12.90
2020,11,04,01,39,12.90
2020,11,04,01,40,12.90
2020,11,04,01,41,12.90
2020,11,04,01,42,12.90
2020,11,04,01,43,12.90
2020,11,04,01,44,12.90
2020,11,04,01,45,12.90
2020,11,04,01,46,12.90
2020,11,04,01,47,12.90
2020,11,04,01,48,12.90
2020,11,04,01,49,12.90
2020,11,04,01,50,12.90
2020,11,04,01,51,12.90
2020,11,04,01,52,12.90
2020,11,04,01,53,12.90
2020,11,04,01,54,13.00
2020,11,04,01,55,13.00
2020,11,04,01,56,13.00
2020,11,04,01,57,13.00
2020,11,04,01,58,13.00
2020,11,04,01,59,13.00
2020,11,04,02,00,13.00
2020,11,04,02,01,13.10
2020,11,04,02,02,13.10
2020,11,04,02,03,13.10
2020,11,04,02,04,13.10
2020,11,04,02,05,13.10
2020,11,04,02,06,13.10
2020,11,04,02,07,13.10
2020,11,04,02,08,13.10
2020,11,04,02,09,13.10
2020,11,04,02,10,13.20
2020,11,04,02,11,13.20
2020,11,04,02,12,13.20
2020,11,04,02,13,13.20
2020,11,04,02,14,13.20
2020,11,04,02,15,13.20
2020,11,04,02,16,13.20
2020,11,04,02,17,13.20
2020,11,04,02,18,13.20
2020,11,04,02,19,13.20
2020,11,04,02,20,13.20
2020,11,04,02,21,13.20
2020,11,04,02,22,13.20
2020,11,04,02,23,13.30
2020,11,04,02,24,13.30
2020,11,04,02,25,13.30
2020,11,04,02,26,13.30
2020,11,04,02,27,13.30
2020,11,04,02,28,13.30
2020,11,04,02,29,13.30
2020,11,04,02,30,13.30
2020,11,04,02,31,13.30
2020,11,04,02,32,13.30
2020,11,04,02,33,13.40
2020,11,04,02,34,13.40
2020,11,04,02,35,13.40
2020,11,04,02,36,13.40
2020,11,04,02,37,13.40
2020,11,04,02,38,13.40
2020,11,04,02,39,13.40
2020,11,04,02,40,13.40
2020,11,04,02,41,13.40
2020,11,04,02,42,13.40
2020,11,04,02,43,13.40
2020,11,04,02,44,13.40
2020,11,04,02,45,13.40
2020,11,04,02,46,13.40
2020,11,04,02,47,13.40
2020,11,04,02,48,13.40
2020,11,04,02,49,13.50
2020,11,04,02,50,13.50
2020,11,04,02,51,13.50
2020,11,04,02,52,13.50
2020,11,04,02,53,13.50
2020,11,04,02,54,13.50
2020,11,04,02,55,13.50
2020,11,04,02,56,13.50
2020,11,04,02,57,13.50
2020,11,04,02,58,13.50
2020,11,04,02,59,13.50
2020,11,04,03,00,13.50
2020,11,04,03,01,13.50
2020,11,04,03,02,13.50
2020,11,04,03,03,13.50
2020,11,04,03,04,13.60
2020,11,04,03,05,13.60
2020,11,04,03,06,13.60
2020,11,04,03,07,13.60
2020,11,04,03,08,13.60
2020,11,04,03,09,13.60
2020,11,04,03,10,13.60
2020,11,04,03,11,13.60
2020,11,04,03,12,13.60
2020,11,04,03,13,13.60
2020,11,04,03,14,13.60
2020,11,04,03,15,13.60
2020,11,04,03,16,13.60
2020,11,04,03,17,13.60
2020,11,04,03,18,13.60
2020,11,04,03,19,13.60
2020,11,04,03,20,13.60
2020,11,04,03,21,13.60
2020,11,04,03,22,13.60
2020,11,04,03,23,13.60
2020,11,04,03,24,13.60
2020,11,04,03,25,13.60
2020,11,04,03,26,13.60
2020,11,04,03,27,13.60
2020,11,04,03,28,13.60
2020,11,04,03,29,13.60
2020,11,04,03,30,13.60
2020,11,04,03,31,13.60
2020,11,04,03,32,13.60
2020,11,04,03,33,13.60
2020,11,04,03,34,13.60
2020,11,04,03,35,13.60
2020,11,04,03,36,13.60
2020,11,04,03,37,13.60
2020,11,04,03,38,13.60
2020,11,04,03,39,13.60
2020,11,04,03,40,13.60
2020,11,04,03,41,13.60
2020,11,04,03,42,13.70
2020,11,04,03,43,13.70
2020,11,04,03,44,13.70
2020,11,04,03,45,13.70
2020,11,04,03,46,13.70
2020,11,04,03,47,13.70
2020,11,04,03,48,13.70
2020,11,04,03,49,13.70
2020,11,04,03,50,13.70
2020,11,04,03,51,13.70
2020,11,04,03,52,13.70
2020,11,04,03,53,13.70
2020,11,04,03,54,13.70
2020,11,04,03,55,13.80
2020,11,04,03,56,13.80
2020,11,04,03,57,13.80
2020,11,04,03,58,13.80
2020,11,04,03,59,13.80
2020,11,04,04,00,13.80
2020,11,04,04,01,13.80
2020,11,04,04,02,13.80
2020,11,04,04,03,13.90
2020,11,04,04,04,13.90
2020,11,04,04,05,13.90
2020,11,04,04,06,13.90
2020,11,04,04,07,13.90
2020,11,04,04,08,13.90
2020,11,04,04,09,13.90
2020,11,04,04,10,13.90
2020,11,04,04,11,14.00
2020,11,04,04,12,14.00
2020,11,04,04,13,14.00
2020,11,04,04,14,14.00
2020,11,04,04,15,14.00
2020,11,04,04,16,14.00
2020,11,04,04,17,14.00
2020,11,04,04,18,14.00
2020,11,04,04,19,14.00
2020,11,04,04,20,14.00
2020,11,04,04,21,14.00
2020,11,04,04,22,14.00
2020,11,04,04,23,14.00
2020,11,04,04,24,14.10
2020,11,04,04,25,14.10
2020,11,04,04,26,14.10
2020,11,04,04,27,14.10
2020,11,04,04,28,14.00
2020,11,04,04,29,14.00
2020,11,04,04,30,14.00
2020,11,04,04,31,14.00
2020,11,04,04,32,14.00
2020,11,04,04,33,14.00
2020,11,04,04,34,14.00
2020,11,04,04,35,14.00
2020,11,04,04,36,14.00
2020,11,04,04,37,14.00
2020,11,04,04,38,14.00
2020,11,04,04,39,14.00
2020,11,04,04,40,14.00
2020,11,04,04,41,14.00
2020,11,04,04,42,14.00
2020,11,04,04,43,14.00
2020,11,04,04,44,14.00
2020,11,04,04,45,14.00
2020,11,04,04,46,14.00
2020,11,04,04,47,14.00
2020,11,04,04,48,14.00
2020,11,04,04,49,14.10
2020,11,04,04,50,14.10
2020,11,04,04,51,14.10
2020,11,04,04,52,14.10
2020,11,04,04,53,14.10
2020,11,04,04,54,14.10
2020,11,04,04,55,14.10
2020,11,04,04,56,14.10
2020,11,04,04,57,14.00
2020,11,04,04,58,14.00
2020,11,04,04,59,14.00
2020,11,04,05,00,14.00
2020,11,04,05,01,14.00
2020,11,04,05,02,14.10
2020,11,04,05,03,14.10
2020,11,04,05,04,14.10
2020,11,04,05,05,14.10
2020,11,04,05,06,14.10
2020,11,04,05,07,14.10
2020,11,04,05,08,14.10
2020,11,04,05,09,14.10
2020,11,04,05,10,14.10
2020,11,04,05,11,14.10
2020,11,04,05,12,14.10
2020,11,04,05,13,14.10
2020,11,04,05,14,14.10
2020,11,04,05,15,14.20
2020,11,04,05,16,14.20
2020,11,04,05,17,14.20
2020,11,04,05,18,14.20
2020,11,04,05,19,14.20
2020,11,04,05,20,14.20
2020,11,04,05,21,14.20
2020,11,04,05,22,14.20
2020,11,04,05,23,14.30
2020,11,04,05,24,14.30
2020,11,04,05,25,14.30
2020,11,04,05,26,14.30
2020,11,04,05,27,14.30
2020,11,04,05,28,14.30
2020,11,04,05,29,14.30
2020,11,04,05,30,14.30
2020,11,04,05,31,14.30
2020,11,04,05,32,14.30
2020,11,04,05,33,14.30
2020,11,04,05,34,14.40
2020,11,04,05,35,14.40
2020,11,04,05,36,14.40
2020,11,04,05,37,14.40
2020,11,04,05,38,14.40
2020,11,04,05,39,14.40
2020,11,04,05,40,14.40
2020,11,04,05,41,14.40
2020,11,04,05,42,14.40
2020,11,04,05,43,14.30
2020,11,04,05,44,14.30
2020,11,04,05,45,14.30
2020,11,04,05,46,14.30
2020,11,04,05,47,14.30
2020,11,04,05,48,14.40
2020,11,04,05,49,14.40
2020,11,04,05,50,14.40
2020,11,04,05,51,14.40
2020,11,04,05,52,14.40
2020,11,04,05,53,14.40
2020,11,04,05,54,14.40
2020,11,04,05,55,14.40
2020,11,04,05,56,14.40
2020,11,04,05,57,14.40
2020,11,04,05,58,14.40
2020,11,04,05,59,14.40
2020,11,04,06,00,14.40
2020,11,04,06,01,14.40
2020,11,04,06,02,14.40
2020,11,04,06,03,14.40
2020,11,04,06,04,14.40
2020,11,04,06,05,14.40
2020,11,04,06,06,14.40
2020,11,04,06,07,14.40
2020,11,04,06,08,14.40
2020,11,04,06,09,14.40
2020,11,04,06,10,14.40
2020,11,04,06,11,14.40
2020,11,04,06,12,14.40
2020,11,04,06,13,14.40
2020,11,04,06,14,14.40
2020,11,04,06,15,14.40
2020,11,04,06,16,14.40
2020,11,04,06,17,14.40
2020,11,04,06,18,14.40
2020,11,04,06,19,14.40
2020,11,04,06,20,14.40
2020,11,04,06,21,14.40
2020,11,04,06,22,14.40
2020,11,04,06,23,14.40
2020,11,04,06,24,14.40
2020,11,04,06,25,14.40
2020,11,04,06,26,14.40
2020,11,04,06,27,14.40
2020,11,04,06,28,14.40
2020,11,04,06,29,14.40
2020,11,04,06,30,14.40
2020,11,04,06,31,14.40
2020,11,04,06,32,14.40
2020,11,04,06,33,14.40
2020,11,04,06,34,14.40
2020,11,04,06,35,14.40
2020,11,04,06,36,14.40
2020,11,04,06,37,14.40
2020,11,04,06,38,14.40
2020,11,04,06,39,14.40
2020,11,04,06,40,14.40
2020,11,04,06,41,14.40
2020,11,04,06,42,14.40
2020,11,04,06,43,14.40
2020,11,04,06,44,14.40
2020,11,04,06,45,14.40
2020,11,04,06,46,14.40
2020,11,04,06,47,14.30
2020,11,04,06,48,14.30
2020,11,04,06,49,14.30
2020,11,04,06,50,14.30
2020,11,04,06,51,14.30
2020,11,04,06,52,14.30
2020,11,04,06,53,14.30
2020,11,04,06,54,14.30
2020,11,04,06,55,14.30
2020,11,04,06,56,14.30
2020,11,04,06,57,14.30
2020,11,04,06,58,14.30
2020,11,04,06,59,14.30
2020,11,04,07,00,14.40
2020,11,04,07,01,14.40
2020,11,04,07,02,14.40
2020,11,04,07,03,14.40
2020,11,04,07,04,14.40
2020,11,04,07,05,14.50
2020,11,04,07,06,14.40
2020,11,04,07,07,14.50
2020,11,04,07,08,14.50
2020,11,04,07,09,14.50
2020,11,04,07,10,14.50
2020,11,04,07,11,14.50
2020,11,04,07,12,14.50
2020,11,04,07,13,14.50
2020,11,04,07,14,14.50
2020,11,04,07,15,14.50
2020,11,04,07,16,14.50
2020,11,04,07,17,14.50
2020,11,04,07,18,14.40
2020,11,04,07,19,14.40
2020,11,04,07,20,14.40
2020,11,04,07,21,14.40
2020,11,04,07,22,14.40
2020,11,04,07,23,14.40
2020,11,04,07,24,14.40
2020,11,04,07,25,14.40
2020,11,04,07,26,14.40
2020,11,04,07,27,14.40
2020,11,04,07,28,14.40
2020,11,04,07,29,14.40
2020,11,04,07,30,14.40
2020,11,04,07,31,14.40
2020,11,04,07,32,14.40
2020,11,04,07,33,14.50
2020,11,04,07,34,14.50
2020,11,04,07,35,14.50
2020,11,04,07,36,14.50
2020,11,04,07,37,14.50
2020,11,04,07,38,14.50
2020,11,04,07,39,14.50
2020,11,04,07,40,14.50
2020,11,04,07,41,14.50
2020,11,04,07,42,14.50
2020,11,04,07,43,14.50
2020,11,04,07,44,14.50
2020,11,04,07,45,14.50
2020,11,04,07,46,14.50
2020,11,04,07,47,14.50
2020,11,04,07,48,14.50
2020,11,04,07,49,14.50
2020,11,04,07,50,14.50
2020,11,04,07,51,14.50
2020,11,04,07,52,14.50
2020,11,04,07,53,14.50
2020,11,04,07,54,14.50
2020,11,04,07,55,14.50
2020,11,04,07,56,14.50
2020,11,04,07,57,14.50
2020,11,04,07,58,14.50
2020,11,04,07,59,14.60
2020,11,04,08,00,14.60
2020,11,04,08,01,14.60
2020,11,04,08,02,14.60
2020,11,04,08,03,14.60
2020,11,04,08,04,14.60
2020,11,04,08,05,14.70
2020,11,04,08,06,14.70
2020,11,04,08,07,14.70
2020,11,04,08,08,14.70
2020,11,04,08,09,14.70
2020,11,04,08,10,14.70
2020,11,04,08,11,14.70
2020,11,04,08,12,14.70
2020,11,04,08,13,14.70
2020,11,04,08,14,14.70
2020,11,04,08,15,14.70
2020,11,04,08,16,14.70
2020,11,04,08,17,14.70
2020,11,04,08,18,14.70
2020,11,04,08,19,14.70
2020,11,04,08,20,14.70
2020,11,04,08,21,14.70
2020,11,04,08,22,14.70
2020,11,04,08,23,14.80
2020,11,04,08,24,14.80
2020,11,04,08,25,14.80
2020,11,04,08,26,14.80
2020,11,04,08,27,14.80
2020,11,04,08,28,14.80
2020,11,04,08,29,14.80
2020,11,04,08,30,14.90
2020,11,04,08,31,14.90
2020,11,04,08,32,14.90
2020,11,04,08,33,14.90
2020,11,04,08,34,14.90
2020,11,04,08,35,14.90
2020,11,04,08,36,14.90
2020,11,04,08,37,15.00
2020,11,04,08,38,15.00
2020,11,04,08,39,15.00
2020,11,04,08,40,15.00
2020,11,04,08,41,15.00
2020,11,04,08,42,15.00
2020,11,04,08,43,15.00
2020,11,04,08,44,15.00
2020,11,04,08,45,15.00
2020,11,04,08,46,15.00
2020,11,04,08,47,15.00
2020,11,04,08,48,15.00
2020,11,04,08,49,15.10
2020,11,04,08,50,15.10
2020,11,04,08,51,15.20
2020,11,04,08,52,15.30
2020,11,04,08,53,15.30
2020,11,04,08,54,15.40
2020,11,04,08,55,15.40
2020,11,04,08,56,15.50
2020,11,04,08,57,15.50
2020,11,04,08,58,15.60
2020,11,04,08,59,15.70
2020,11,04,09,00,15.70
2020,11,04,09,01,15.80
2020,11,04,09,02,15.80
2020,11,04,09,03,15.90
2020,11,04,09,04,15.90
2020,11,04,09,05,16.00
2020,11,04,09,06,16.00
2020,11,04,09,07,16.10
2020,11,04,09,08,16.10
2020,11,04,09,09,16.20
2020,11,04,09,10,16.20
2020,11,04,09,11,16.20
2020,11,04,09,12,16.30
2020,11,04,09,13,16.30
2020,11,04,09,14,16.30
2020,11,04,09,15,16.40
2020,11,04,09,16,16.50
2020,11,04,09,17,16.50
2020,11,04,09,18,16.60
2020,11,04,09,19,16.60
2020,11,04,09,20,16.70
2020,11,04,09,21,16.80
2020,11,04,09,22,16.80
2020,11,04,09,23,16.90
2020,11,04,09,24,16.90
2020,11,04,09,25,16.90
2020,11,04,09,26,16.90
2020,11,04,09,27,16.90
2020,11,04,09,28,16.90
2020,11,04,09,29,16.90
2020,11,04,09,30,16.80
2020,11,04,09,31,16.70
2020,11,04,09,32,16.70
2020,11,04,09,33,16.60
2020,11,04,09,34,16.60
2020,11,04,09,35,16.60
2020,11,04,09,36,16.70
2020,11,04,09,37,16.70
2020,11,04,09,38,16.70
2020,11,04,09,39,16.70
2020,11,04,09,40,16.60
2020,11,04,09,41,16.40
2020,11,04,09,42,16.30
2020,11,04,09,43,16.30
2020,11,04,09,44,16.20
2020,11,04,09,45,16.20
2020,11,04,09,46,16.10
2020,11,04,09,47,16.10
2020,11,04,09,48,16.10
2020,11,04,09,49,16.10
2020,11,04,09,50,16.10
2020,11,04,09,51,16.20
2020,11,04,09,52,16.20
2020,11,04,09,53,16.20
2020,11,04,09,54,16.20
2020,11,04,09,55,16.30
2020,11,04,09,56,16.30
2020,11,04,09,57,16.30
2020,11,04,09,58,16.40
2020,11,04,09,59,16.40
2020,11,04,10,00,16.40
2020,11,04,10,01,16.50
2020,11,04,10,02,16.50
2020,11,04,10,03,16.50
2020,11,04,10,04,16.50
2020,11,04,10,05,16.50
2020,11,04,10,06,16.50
2020,11,04,10,07,16.60
2020,11,04,10,08,16.60
2020,11,04,10,09,16.60
2020,11,04,10,10,16.60
2020,11,04,10,11,16.60
2020,11,04,10,12,16.70
2020,11,04,10,13,16.70
2020,11,04,10,14,16.60
2020,11,04,10,15,16.60
2020,11,04,10,16,16.60
2020,11,04,10,17,16.50
2020,11,04,10,18,16.50
2020,11,04,10,19,16.50
2020,11,04,10,20,16.50
2020,11,04,10,21,16.60
2020,11,04,10,22,16.60
2020,11,04,10,23,16.60
2020,11,04,10,24,16.60
2020,11,04,10,25,16.70
2020,11,04,10,26,16.70
2020,11,04,10,27,16.70
2020,11,04,10,28,16.70
2020,11,04,10,29,16.70
2020,11,04,10,30,16.80
2020,11,04,10,31,16.70
2020,11,04,10,32,16.80
2020,11,04,10,33,16.90
2020,11,04,10,34,16.90
2020,11,04,10,35,17.00
2020,11,04,10,36,17.10
2020,11,04,10,37,17.20
2020,11,04,10,38,17.30
2020,11,04,10,39,17.30
2020,11,04,10,40,17.30
2020,11,04,10,41,17.40
2020,11,04,10,42,17.40
2020,11,04,10,43,17.40
2020,11,04,10,44,17.30
2020,11,04,10,45,17.30
2020,11,04,10,46,17.40
2020,11,04,10,47,17.50
2020,11,04,10,48,17.50
2020,11,04,10,49,17.60
2020,11,04,10,50,17.60
2020,11,04,10,51,17.60
2020,11,04,10,52,17.50
2020,11,04,10,53,17.40
2020,11,04,10,54,17.40
2020,11,04,10,55,17.30
2020,11,04,10,56,17.30
2020,11,04,10,57,17.30
2020,11,04,10,58,17.30
2020,11,04,10,59,17.20
2020,11,04,11,00,17.00
2020,11,04,11,01,16.90
2020,11,04,11,02,16.80
2020,11,04,11,03,16.90
2020,11,04,11,04,17.00
2020,11,04,11,05,17.10
2020,11,04,11,06,17.10
2020,11,04,11,07,17.10
2020,11,04,11,08,17.10
2020,11,04,11,09,17.20
2020,11,04,11,10,17.30
2020,11,04,11,11,17.40
2020,11,04,11,12,17.50
2020,11,04,11,13,17.70
2020,11,04,11,14,17.80
2020,11,04,11,15,17.90
2020,11,04,11,16,18.00
2020,11,04,11,17,18.10
2020,11,04,11,18,18.20
2020,11,04,11,19,18.20
2020,11,04,11,20,18.20
2020,11,04,11,21,18.20
2020,11,04,11,22,18.30
2020,11,04,11,23,18.30
2020,11,04,11,24,18.30
2020,11,04,11,25,18.30
2020,11,04,11,26,18.30
2020,11,04,11,27,18.30
2020,11,04,11,28,18.30
2020,11,04,11,29,18.30
2020,11,04,11,30,18.40
2020,11,04,11,31,18.40
2020,11,04,11,32,18.30
2020,11,04,11,33,18.30
2020,11,04,11,34,18.20
2020,11,04,11,35,18.10
2020,11,04,11,36,18.00
2020,11,04,11,37,18.00
2020,11,04,11,38,17.90
2020,11,04,11,39,17.90
2020,11,04,11,40,17.90
2020,11,04,11,41,17.80
2020,11,04,11,42,17.70
2020,11,04,11,43,17.50
2020,11,04,11,44,17.30
2020,11,04,11,45,17.20
2020,11,04,11,46,17.00
2020,11,04,11,47,16.90
2020,11,04,11,48,16.80
2020,11,04,11,49,16.80
2020,11,04,11,50,16.70
2020,11,04,11,51,16.70
2020,11,04,11,52,16.70
2020,11,04,11,53,16.70
2020,11,04,11,54,16.70
2020,11,04,11,55,16.70
2020,11,04,11,56,16.70
2020,11,04,11,57,16.80
2020,11,04,11,58,16.80
2020,11,04,11,59,16.80
2020,11,04,12,00,16.80
2020,11,04,12,01,16.90
2020,11,04,12,02,16.90
2020,11,04,12,03,17.00
2020,11,04,12,04,17.00
2020,11,04,12,05,17.00
2020,11,04,12,06,17.00
2020,11,04,12,07,17.10
2020,11,04,12,08,17.00
2020,11,04,12,09,17.00
2020,11,04,12,10,17.00
2020,11,04,12,11,17.00
2020,11,04,12,12,16.90
2020,11,04,12,13,16.90
2020,11,04,12,14,16.90
2020,11,04,12,15,16.90
2020,11,04,12,16,17.00
2020,11,04,12,17,17.00
2020,11,04,12,18,17.00
2020,11,04,12,19,16.90
2020,11,04,12,20,16.90
2020,11,04,12,21,16.80
2020,11,04,12,22,16.80
2020,11,04,12,23,16.80
2020,11,04,12,24,16.80
2020,11,04,12,25,16.90
2020,11,04,12,26,16.90
2020,11,04,12,27,16.90
2020,11,04,12,28,16.90
2020,11,04,12,29,16.90
2020,11,04,12,30,17.00
2020,11,04,12,31,17.00
2020,11,04,12,32,17.00
2020,11,04,12,33,17.00
2020,11,04,12,34,17.00
2020,11,04,12,35,17.10
2020,11,04,12,36,17.10
2020,11,04,12,37,17.10
2020,11,04,12,38,17.10
2020,11,04,12,39,17.20
2020,11,04,12,40,17.30
2020,11,04,12,41,17.40
2020,11,04,12,42,17.50
2020,11,04,12,43,17.60
2020,11,04,12,44,17.70
2020,11,04,12,45,17.80
2020,11,04,12,46,18.00
2020,11,04,12,47,18.20
2020,11,04,12,48,18.30
2020,11,04,12,49,18.40
2020,11,04,12,50,18.50
2020,11,04,12,51,18.60
2020,11,04,12,52,18.60
2020,11,04,12,53,18.70
2020,11,04,12,54,18.80
2020,11,04,12,55,18.90
2020,11,04,12,56,18.90
2020,11,04,12,57,19.00
2020,11,04,12,58,19.00
2020,11,04,12,59,19.10
2020,11,04,13,00,19.10
2020,11,04,13,01,19.10
2020,11,04,13,02,19.10
2020,11,04,13,03,19.10
2020,11,04,13,04,19.10
2020,11,04,13,05,19.10
2020,11,04,13,06,19.10
2020,11,04,13,07,19.10
2020,11,04,13,08,19.10
2020,11,04,13,09,19.10
2020,11,04,13,10,19.10
2020,11,04,13,11,19.10
2020,11,04,13,12,19.10
2020,11,04,13,13,19.20
2020,11,04,13,14,19.20
2020,11,04,13,15,19.30
2020,11,04,13,16,19.30
2020,11,04,13,17,19.30
2020,11,04,13,18,19.30
2020,11,04,13,19,19.40
2020,11,04,13,20,19.40
2020,11,04,13,21,19.40
2020,11,04,13,22,19.40
2020,11,04,13,23,19.40
2020,11,04,13,24,19.40
2020,11,04,13,25,19.40
2020,11,04,13,26,19.30
2020,11,04,13,27,19.20
2020,11,04,13,28,19.20
2020,11,04,13,29,19.20
2020,11,04,13,30,19.20
2020,11,04,13,31,19.20
2020,11,04,13,32,19.10
2020,11,04,13,33,19.00
2020,11,04,13,34,18.90
2020,11,04,13,35,18.90
2020,11,04,13,36,18.90
2020,11,04,13,37,18.90
2020,11,04,13,38,18.80
2020,11,04,13,39,18.80
2020,11,04,13,40,18.80
2020,11,04,13,41,18.80
2020,11,04,13,42,18.70
2020,11,04,13,43,18.70
2020,11,04,13,44,18.60
2020,11,04,13,45,18.60
2020,11,04,13,46,18.50
2020,11,04,13,47,18.50
2020,11,04,13,48,18.40
2020,11,04,13,49,18.30
2020,11,04,13,50,18.30
2020,11,04,13,51,18.20
2020,11,04,13,52,18.10
2020,11,04,13,53,18.10
2020,11,04,13,54,18.00
2020,11,04,13,55,17.80
2020,11,04,13,56,17.70
2020,11,04,13,57,17.60
2020,11,04,13,58,17.50
2020,11,04,13,59,17.30
2020,11,04,14,00,17.10
2020,11,04,14,01,17.00
2020,11,04,14,02,16.80
2020,11,04,14,03,16.70
2020,11,04,14,04,16.50
2020,11,04,14,05,16.40
2020,11,04,14,06,16.30
2020,11,04,14,07,16.20
2020,11,04,14,08,16.10
2020,11,04,14,09,15.90
2020,11,04,14,10,15.60
2020,11,04,14,11,15.40
2020,11,04,14,12,15.10
2020,11,04,14,13,15.00
2020,11,04,14,14,14.80
2020,11,04,14,15,14.60
2020,11,04,14,16,14.40
2020,11,04,14,17,14.30
2020,11,04,14,18,14.20
2020,11,04,14,19,14.10
2020,11,04,14,20,14.10
2020,11,04,14,21,14.10
2020,11,04,14,22,14.10
2020,11,04,14,23,14.00
2020,11,04,14,24,14.00
2020,11,04,14,25,13.90
2020,11,04,14,26,13.90
2020,11,04,14,27,13.90
2020,11,04,14,28,13.90
2020,11,04,14,29,13.90
2020,11,04,14,30,13.90
2020,11,04,14,31,13.90
2020,11,04,14,32,14.00
2020,11,04,14,33,14.00
2020,11,04,14,34,14.00
2020,11,04,14,35,14.00
2020,11,04,14,36,14.10
2020,11,04,14,37,14.10
2020,11,04,14,38,14.10
2020,11,04,14,39,14.20
2020,11,04,14,40,14.20
2020,11,04,14,41,14.20
2020,11,04,14,42,14.20
2020,11,04,14,43,14.30
2020,11,04,14,44,14.30
2020,11,04,14,45,14.30
2020,11,04,14,46,14.30
2020,11,04,14,47,14.30
2020,11,04,14,48,14.40
2020,11,04,14,49,14.40
2020,11,04,14,50,14.40
2020,11,04,14,51,14.50
2020,11,04,14,52,14.50
2020,11,04,14,53,14.60
2020,11,04,14,54,14.60
2020,11,04,14,55,14.60
2020,11,04,14,56,14.70
2020,11,04,14,57,14.70
2020,11,04,14,58,14.70
2020,11,04,14,59,14.70
2020,11,04,15,00,14.80
2020,11,04,15,01,14.80
2020,11,04,15,02,14.80
2020,11,04,15,03,14.80
2020,11,04,15,04,14.90
2020,11,04,15,05,14.90
2020,11,04,15,06,15.00
2020,11,04,15,07,15.00
2020,11,04,15,08,15.00
2020,11,04,15,09,15.00
2020,11,04,15,10,15.00
2020,11,04,15,11,15.00
2020,11,04,15,12,15.00
2020,11,04,15,13,15.00
2020,11,04,15,14,15.00
2020,11,04,15,15,15.00
2020,11,04,15,16,15.00
2020,11,04,15,17,15.00
2020,11,04,15,18,15.00
2020,11,04,15,19,15.00
2020,11,04,15,20,15.00
2020,11,04,15,21,15.00
2020,11,04,15,22,15.00
2020,11,04,15,23,15.00
2020,11,04,15,24,15.00
2020,11,04,15,25,15.00
2020,11,04,15,26,15.00
2020,11,04,15,27,15.00
2020,11,04,15,28,15.00
2020,11,04,15,29,15.00
2020,11,04,15,30,15.00
2020,11,04,15,31,15.00
2020,11,04,15,32,15.00
2020,11,04,15,33,15.00
2020,11,04,15,34,15.00
2020,11,04,15,35,15.00
2020,11,04,15,36,15.10
2020,11,04,15,37,15.10
2020,11,04,15,38,15.10
2020,11,04,15,39,15.20
2020,11,04,15,40,15.20
2020,11,04,15,41,15.20
2020,11,04,15,42,15.20
2020,11,04,15,43,15.10
2020,11,04,15,44,15.10
2020,11,04,15,45,15.10
2020,11,04,15,46,15.00
2020,11,04,15,47,15.00
2020,11,04,15,48,15.00
2020,11,04,15,49,15.00
2020,11,04,15,50,15.00
2020,11,04,15,51,15.00
2020,11,04,15,52,15.00
2020,11,04,15,53,15.00
2020,11,04,15,54,15.00
2020,11,04,15,55,15.00
2020,11,04,15,56,15.00
2020,11,04,15,57,15.00
2020,11,04,15,58,15.00
2020,11,04,15,59,15.00
2020,11,04,16,00,15.00
2020,11,04,16,01,15.00
2020,11,04,16,02,15.00
2020,11,04,16,03,15.00
2020,11,04,16,04,15.00
2020,11,04,16,05,15.00
2020,11,04,16,06,15.00
2020,11,04,16,07,15.00
2020,11,04,16,08,15.00
2020,11,04,16,09,15.00
2020,11,04,16,10,15.00
2020,11,04,16,11,14.90
2020,11,04,16,12,15.00
2020,11,04,16,13,14.90
2020,11,04,16,14,14.90
2020,11,04,16,15,14.90
2020,11,04,16,16,14.90
2020,11,04,16,17,14.90
2020,11,04,16,18,14.90
2020,11,04,16,19,14.90
2020,11,04,16,20,14.90
2020,11,04,16,21,14.90
2020,11,04,16,22,14.90
2020,11,04,16,23,14.90
2020,11,04,16,24,14.90
2020,11,04,16,25,14.90
2020,11,04,16,26,14.90
2020,11,04,16,27,15.00
2020,11,04,16,28,15.00
2020,11,04,16,29,15.00
2020,11,04,16,30,15.00
2020,11,04,16,31,15.00
2020,11,04,16,32,15.00
2020,11,04,16,33,15.00
2020,11,04,16,34,15.00
2020,11,04,16,35,15.00
2020,11,04,16,36,15.00
2020,11,04,16,37,15.00
2020,11,04,16,38,15.00
2020,11,04,16,39,15.00
2020,11,04,16,40,15.00
2020,11,04,16,41,15.00
2020,11,04,16,42,15.00
2020,11,04,16,43,15.00
2020,11,04,16,44,15.00
2020,11,04,16,45,15.00
2020,11,04,16,46,15.00
2020,11,04,16,47,15.00
2020,11,04,16,48,15.00
2020,11,04,16,49,15.00
2020,11,04,16,50,15.00
2020,11,04,16,51,15.00
2020,11,04,16,52,15.00
2020,11,04,16,53,15.00
2020,11,04,16,54,15.10
2020,11,04,16,55,15.10
2020,11,04,16,56,15.20
2020,11,04,16,57,15.20
2020,11,04,16,58,15.20
2020,11,04,16,59,15.20
2020,11,04,17,00,15.30
2020,11,04,17,01,15.30
2020,11,04,17,02,15.30
2020,11,04,17,03,15.30
2020,11,04,17,04,15.30
2020,11,04,17,05,15.30
2020,11,04,17,06,15.30
2020,11,04,17,07,15.30
2020,11,04,17,08,15.40
2020,11,04,17,09,15.50
2020,11,04,17,10,15.50
2020,11,04,17,11,15.60
2020,11,04,17,12,15.60
2020,11,04,17,13,15.60
2020,11,04,17,14,15.60
2020,11,04,17,15,15.60
2020,11,04,17,16,15.60
2020,11,04,17,17,15.60
2020,11,04,17,18,15.60
2020,11,04,17,19,15.50